Temp
-5 -5 -4 -4 -4 -4 -4 -4 -4 -4 -4 -4 -4 -4 -4 -4 -4 -4 -4 -4 -4 -4 -4 -5 -5 -5 -5 -5 -5 -5 -5 -5 -5 -5 -5 -5 -5 -5 -5 -5 -6 -6
-5 -5 -4 -4 -4 -4 -4 -4 -4 -4 -4 -4 -4 -4 -4 -4 -4 -4 -4 -4 -4 -4 -4 -4 -4 -4 -4 -4 -5 -5 -5 -5 -5 -5 -5 -5 -5 -5 -5 -5 -5 -5
-5 -5 -4 -4 -4 -4 -4 -4 -4 -4 -4 -4 -4 -4 -4 -4 -4 -3 -3 -4 -4 -4 -4 -4 -4 -4 -4 -4 -4 -4 -5 -5 -5 -5 -5 -5 -5 -5 -5 -5 -5 -5
-5 -5 -5 -4 -4 -4 -4 -4 -4 -4 -4 -4 -4 -3 -3 -3 -3 -3 -3 -3 -3 -3 -4 -4 -4 -4 -4 -4 -4 -4 -4 -5 -5 -5 -5 -5 -5 -5 -5 -5 -5 -5
-5 -5 -5 -4 -4 -4 -4 -4 -4 -4 -4 -4 -4 -3 -3 -3 -3 -3 -3 -3 -3 -3 -3 -3 -4 -4 -4 -4 -4 -4 -4 -4 -5 -5 -5 -5 -5 -5 -5 -5 -5 -5
-5 -5 -5 -5 -4 -4 -4 -4 -4 -4 -4 -3 -3 -3 -3 -3 -3 -3 -3 -3 -3 -3 -3 -3 -3 -3 -4 -4 -4 -4 -4 -4 -4 -4 -4 -5 -5 -5 -5 -5 -5 -5
-5 -5 -5 -5 -5 -5 -4 -4 -4 -4 -4 -3 -3 -3 -3 -3 -3 -3 -3 -3 -3 -3 -3 -3 -3 -3 -3 -4 -4 -4 -4 -4 -4 -4 -4 -4 -4 -4 -5 -5 -5 -5
-5 -5 -6 -6 -5 -5 -5 -4 -4 -4 -4 -4 -3 -3 -3 -3 -3 -3 -3 -3 -3 -3 -3 -3 -3 -3 -3 -3 -4 -4 -4 -4 -4 -4 -4 -4 -4 -4 -4 -4 -4 -4
-5 -5 -6 -6 -5 -5 -5 -5 -4 -4 -4 -4 -3 -3 -3 -3 -3 -3 -3 -3 -3 -3 -3 -3 -3 -3 -3 -3 -3 -3 -4 -4 -4 -4 -4 -4 -4 -4 -4 -4 -4 -4
-5 -5 -5 -6 -6 -5 -5 -5 -5 -4 -4 -4 -4 -3 -3 -3 -3 -3 -3 -3 -3 -3 -3 -3 -3 -3 -3 -3 -3 -3 -3 -3 -3 -4 -4 -3 -4 -4 -4 -4 -4 -4
-5 -5 -5 -5 -6 -6 -5 -5 -5 -5 -4 -4 -4 -4 -4 -3 -3 -3 -3 -3 -3 -3 -3 -3 -2 -2 -3 -3 -3 -3 -3 -3 -3 -3 -3 -3 -3 -3 -3 -4 -4 -4
-5 -5 -5 -5 -5 -6 -5 -5 -5 -5 -5 -4 -4 -4 -4 -4 -3 -3 -3 -3 -3 -3 -3 -3 -2 -2 -2 -2 -2 -3 -3 -3 -3 -3 -3 -3 -3 -3 -3 -3 -4 -4
-6 -6 -5 -5 -5 -5 -5 -5 -5 -5 -5 -5 -4 -4 -4 -4 -4 -4 -3 -3 -3 -3 -3 -3 -3 -3 -2 -2 -2 -2 -2 -3 -3 -3 -3 -3 -3 -3 -3 -3 -3 -4
-6 -6 -5 -5 -5 -5 -5 -5 -5 -5 -5 -5 -5 -4 -4 -4 -4 -4 -4 -3 -3 -3 -3 -3 -3 -3 -3 -2 -2 -2 -2 -2 -2 -2 -2 -3 -3 -3 -3 -3 -3 -3
-6 -6 -6 -6 -5 -5 -5 -5 -5 -5 -5 -5 -5 -5 -4 -4 -4 -4 -4 -4 -3 -3 -3 -3 -3 -3 -3 -3 -3 -3 -3 -2 -2 -2 -3 -3 -3 -3 -3 -3 -3 -3
-6 -7 -7 -6 -6 -5 -5 -5 -6 -6 -5 -5 -5 -5 -5 -4 -4 -4 -4 -4 -4 -4 -4 -4 -4 -4 -4 -3 -3 -3 -3 -3 -3 -3 -3 -3 -3 -3 -3 -3 -3 -3
-6 -7 -7 -7 -6 -6 -6 -5 -6 -6 -6 -6 -6 -5 -5 -5 -5 -4 -4 -4 -4 -4 -4 -4 -4 -4 -4 -4 -4 -3 -3 -3 -3 -3 -3 -3 -3 -3 -3 -3 -3 -3
-7 -7 -7 -7 -6 -6 -6 -6 -6 -6 -6 -6 -6 -6 -5 -5 -5 -5 -5 -5 -5 -5 -4 -4 -4 -4 -5 -5 -4 -4 -4 -3 -3 -3 -3 -3 -3 -3 -3 -4 -4 -4
-7 -7 -7 -7 -6 -6 -7 -7 -7 -7 -7 -6 -6 -5 -5 -5 -5 -5 -5 -5 -5 -5 -5 -5 -5 -5 -5 -5 -5 -5 -4 -4 -4 -4 -3 -3 -3 -3 -3 -3 -4 -4
-7 -7 -7 -7 -7 -7 -6 -6 -6 -7 -7 -7 -7 -6 -6 -6 -5 -5 -5 -5 -5 -5 -5 -5 -5 -5 -5 -5 -5 -5 -5 -4 -4 -4 -4 -4 -4 -3 -3 -4 -4 -4
-7 -7 -7 -7 -7 -7 -6 -6 -6 -6 -7 -7 -7 -7 -6 -6 -6 -5 -5 -5 -5 -5 -5 -5 -5 -5 -5 -5 -5 -5 -5 -5 -4 -4 -4 -4 -4 -4 -4 -4 -4 -4
-7 -7 -7 -7 -7 -7 -6 -6 -6 -6 -6 -6 -6 -6 -6 -6 -6 -6 -6 -5 -5 -5 -5 -5 -5 -5 -5 -5 -5 -5 -5 -5 -5 -4 -4 -4 -4 -4 -4 -4 -4 -4
-7 -7 -7 -7 -7 -7 -7 -6 -6 -7 -6 -6 -6 -6 -6 -6 -6 -6 -6 -6 -6 -6 -5 -5 -5 -5 -5 -5 -5 -5 -5 -5 -5 -5 -4 -4 -4 -4 -4 -4 -4 -4
-7 -7 -7 -7 -7 -7 -7 -6 -6 -6 -7 -7 -6 -6 -6 -6 -6 -6 -6 -6 -6 -6 -6 -6 -6 -5 -5 -5 -5 -5 -5 -5 -5 -5 -5 -5 -5 -5 -5 -4 -4 -4
-7 -7 -7 -7 -7 -7 -7 -6 -6 -6 -6 -7 -7 -7 -6 -6 -6 -6 -6 -6 -6 -6 -6 -7 -6 -6 -5 -5 -5 -5 -5 -5 -5 -5 -5 -5 -5 -5 -5 -5 -5 -4
-7 -7 -7 -7 -7 -7 -7 -7 -6 -6 -6 -6 -6 -6 -6 -6 -6 -6 -6 -6 -6 -6 -6 -7 -7 -6 -6 -5 -5 -5 -5 -5 -5 -5 -5 -5 -5 -5 -5 -5 -5 -5
Height
5939 5941 5942 5943 5945 5946 5948 5950 5951 5952 5953 5954 5955 5956 5957 5959 5960 5960 5961 5961 5961 5961 5962 5962 5963 5963 5964 5965 5965 5965 5965 5965 5966 5966 5967 5967 5968 5968 5968 5969 5969 5970
5939 5940 5941 5943 5944 5945 5947 5949 5950 5951 5952 5954 5955 5956 5957 5958 5959 5960 5961 5961 5962 5962 5962 5962 5963 5964 5964 5965 5965 5964 5965 5966 5966 5967 5967 5967 5968 5968 5968 5970 5970 5970
5938 5939 5941 5942 5943 5944 5946 5948 5949 5950 5952 5953 5954 5955 5956 5957 5958 5959 5960 5961 5962 5962 5962 5963 5963 5964 5964 5965 5965 5965 5965 5966 5967 5967 5967 5968 5968 5968 5969 5970 5971 5971
5937 5938 5940 5942 5943 5944 5946 5947 5948 5950 5951 5952 5953 5954 5956 5957 5957 5959 5960 5960 5961 5962 5963 5963 5963 5964 5964 5965 5966 5966 5966 5966 5967 5968 5968 5968 5968 5968 5969 5970 5971 5971
5936 5937 5939 5941 5943 5944 5945 5946 5947 5949 5950 5952 5953 5954 5955 5956 5957 5958 5959 5960 5961 5962 5962 5963 5963 5964 5964 5964 5965 5967 5967 5967 5967 5968 5968 5968 5968 5968 5969 5970 5970 5971
5934 5935 5937 5940 5942 5944 5945 5946 5947 5948 5950 5951 5953 5954 5954 5955 5956 5958 5959 5959 5960 5961 5962 5963 5963 5964 5964 5964 5965 5966 5967 5967 5967 5968 5968 5969 5969 5969 5969 5970 5970 5971
5932 5933 5935 5938 5940 5942 5944 5945 5947 5948 5949 5950 5952 5953 5954 5955 5956 5957 5958 5959 5960 5961 5961 5962 5963 5964 5964 5964 5965 5965 5966 5967 5967 5968 5968 5969 5969 5969 5970 5970 5970 5971
5930 5931 5933 5935 5938 5940 5942 5944 5946 5947 5948 5950 5951 5952 5953 5954 5955 5956 5957 5958 5959 5960 5961 5962 5963 5964 5964 5964 5964 5965 5966 5966 5967 5967 5968 5969 5969 5970 5970 5970 5971 5971
5928 5930 5932 5934 5935 5938 5940 5942 5944 5946 5947 5948 5950 5951 5952 5954 5954 5956 5957 5958 5959 5960 5961 5962 5963 5963 5964 5964 5964 5965 5965 5966 5966 5967 5968 5968 5969 5970 5970 5970 5971 5971
5928 5929 5930 5932 5934 5935 5938 5940 5942 5944 5945 5947 5948 5949 5951 5952 5954 5955 5956 5957 5958 5959 5960 5961 5962 5963 5964 5964 5964 5964 5965 5965 5966 5966 5967 5967 5968 5969 5970 5970 5971 5971
5928 5928 5929 5930 5932 5933 5935 5937 5940 5942 5944 5945 5946 5948 5949 5951 5953 5954 5955 5956 5957 5958 5959 5960 5961 5962 5963 5964 5964 5964 5965 5965 5965 5966 5966 5966 5967 5968 5969 5969 5970 5971
5927 5927 5927 5928 5930 5932 5933 5935 5938 5940 5942 5943 5945 5946 5948 5949 5951 5953 5954 5955 5956 5957 5958 5959 5960 5961 5962 5963 5964 5964 5964 5965 5965 5965 5965 5966 5966 5967 5967 5968 5969 5970
5923 5924 5926 5926 5928 5930 5931 5933 5935 5938 5940 5941 5943 5944 5946 5948 5949 5951 5952 5953 5954 5955 5956 5957 5958 5959 5961 5962 5963 5963 5964 5964 5964 5965 5965 5965 5965 5966 5966 5967 5968 5969
5919 5920 5921 5922 5925 5926 5928 5931 5933 5935 5938 5940 5941 5943 5944 5946 5947 5949 5950 5951 5953 5954 5955 5955 5956 5958 5959 5960 5961 5962 5963 5964 5964 5965 5965 5965 5965 5965 5966 5966 5967 5967
5918 5918 5918 5920 5922 5923 5925 5928 5930 5933 5935 5937 5939 5940 5942 5943 5945 5946 5948 5949 5951 5952 5953 5954 5955 5956 5957 5958 5959 5960 5961 5962 5963 5964 5965 5965 5965 5965 5965 5966 5966 5966
5917 5919 5920 5920 5920 5921 5922 5923 5926 5928 5930 5932 5935 5937 5938 5940 5942 5944 5946 5947 5948 5949 5951 5952 5953 5954 5955 5956 5957 5958 5959 5961 5962 5963 5964 5965 5965 5965 5966 5966 5966 5966
5914 5916 5918 5919 5919 5920 5921 5921 5922 5923 5925 5927 5930 5932 5934 5937 5939 5941 5943 5944 5945 5946 5948 5949 5951 5952 5953 5953 5954 5955 5956 5958 5960 5961 5962 5963 5964 5964 5965 5965 5966 5966
5911 5913 5915 5916 5917 5919 5921 5921 5922 5922 5922 5923 5926 5928 5930 5933 5935 5937 5939 5940 5942 5943 5944 5946 5948 5949 5950 5950 5951 5952 5953 5955 5956 5958 5959 5960 5961 5962 5963 5964 5964 5965
5908 5909 5911 5912 5915 5918 5920 5921 5924 5925 5924 5923 5925 5926 5928 5930 5932 5934 5935 5937 5939 5940 5941 5943 5944 5946 5947 5947 5948 5948 5949 5951 5952 5954 5956 5957 5958 5959 5960 5961 5961 5962
5905 5906 5907 5908 5911 5914 5916 5918 5921 5924 5925 5925 5925 5926 5927 5929 5930 5931 5933 5934 5935 5937 5938 5939 5940 5942 5943 5944 5944 5945 5945 5947 5949 5950 5952 5953 5954 5955 5956 5957 5958 5959
5902 5903 5904 5905 5907 5910 5912 5914 5916 5918 5920 5921 5923 5923 5924 5925 5927 5928 5930 5932 5933 5933 5934 5936 5937 5938 5939 5941 5941 5941 5941 5943 5945 5947 5949 5950 5951 5951 5952 5953 5953 5954
5900 5901 5902 5903 5904 5906 5908 5910 5911 5913 5914 5916 5917 5917 5918 5920 5921 5924 5926 5928 5929 5930 5931 5933 5934 5935 5936 5937 5938 5937 5937 5939 5941 5944 5945 5946 5947 5947 5948 5949 5949 5950
5896 5898 5899 5900 5902 5903 5905 5906 5908 5909 5910 5911 5912 5913 5914 5915 5916 5918 5921 5924 5926 5928 5929 5930 5930 5931 5932 5934 5934 5934 5934 5936 5938 5939 5941 5942 5944 5944 5944 5945 5946 5946
5892 5894 5896 5898 5899 5900 5901 5903 5905 5906 5907 5908 5910 5912 5913 5913 5914 5915 5918 5921 5923 5926 5927 5927 5927 5927 5928 5929 5930 5930 5931 5932 5933 5935 5937 5939 5940 5940 5941 5942 5942 5943
5887 5890 5892 5894 5896 5896 5897 5898 5900 5903 5904 5905 5907 5909 5911 5912 5913 5914 5914 5915 5917 5919 5921 5923 5924 5925 5925 5926 5926 5926 5927 5928 5929 5931 5933 5934 5936 5936 5937 5938 5939 5939
5882 5885 5887 5890 5892 5893 5893 5894 5896 5898 5900 5902 5903 5904 5906 5907 5909 5909 5910 5910 5910 5911 5913 5916 5919 5921 5922 5922 5922 5922 5923 5923 5924 5926 5928 5930 5931 5932 5933 5934 5935 5936
Wind_Speed
17 17 16 15 14 13 13 13 12 11 10 9 9 8 7 6 4 3 3 4 5 5 5 5 5 5 5 5 6 5 5 5 4 3 4 4 4 5 5 5 5 5
18 18 17 16 15 15 15 14 13 13 12 11 11 10 9 7 5 4 4 4 4 5 5 4 4 4 4 5 5 5 5 5 5 3 3 4 4 4 4 4 5 5
19 19 18 17 17 16 16 15 14 14 13 12 12 12 10 8 7 6 5 4 4 4 5 4 4 4 5 5 5 5 4 5 5 4 3 4 4 3 3 3 3 4
20 20 19 18 17 17 16 16 15 15 14 14 14 13 11 10 8 7 6 5 5 4 4 4 4 4 5 5 5 5 5 5 5 4 4 5 4 3 3 3 2 3
21 21 20 18 17 17 17 17 17 16 15 15 15 14 13 11 10 8 7 6 5 4 4 4 5 5 5 5 5 5 5 5 4 4 5 5 4 4 3 4 3 3
23 22 21 19 17 17 18 18 18 17 16 16 16 16 15 13 11 10 8 7 7 6 5 4 5 6 6 6 5 4 5 5 4 3 4 4 4 4 4 4 4 2
26 24 22 20 19 18 18 18 18 17 17 17 17 17 16 15 13 11 9 8 8 7 6 6 6 6 6 6 5 4 4 4 4 3 3 3 3 4 3 3 4 2
28 26 24 22 20 19 18 18 18 18 18 18 18 18 18 16 15 13 11 10 9 9 8 7 6 6 6 6 5 5 4 4 4 4 3 3 2 3 2 3 3 3
30 28 25 24 22 20 18 18 18 18 19 19 18 19 19 17 16 14 13 12 11 11 10 8 7 7 7 7 6 6 6 5 5 5 5 4 4 3 3 2 2 2
29 29 27 25 24 22 20 19 19 19 19 19 19 19 19 18 17 16 15 14 13 12 11 10 9 8 8 8 7 7 7 7 7 6 6 5 5 5 4 4 3 2
28 29 29 27 25 24 22 20 19 19 19 20 20 20 20 20 19 18 17 16 15 14 13 12 11 10 9 9 9 8 8 8 8 8 7 7 6 6 5 5 5 5
28 29 29 28 26 25 24 22 20 19 20 20 20 20 20 20 20 19 19 18 17 16 15 14 13 12 11 11 10 10 9 9 9 9 8 8 7 7 6 6 6 6
28 29 29 29 28 26 26 24 22 20 20 21 21 21 21 21 21 21 20 20 19 18 17 16 16 15 14 13 12 12 11 10 10 10 10 9 9 8 8 8 8 8
31 31 29 28 28 28 28 26 24 22 21 21 22 22 22 21 21 21 21 21 20 20 19 18 18 17 17 16 15 14 13 13 12 11 11 11 10 10 10 9 9 9
33 34 31 29 28 29 29 28 27 26 24 24 23 23 23 22 22 22 21 21 21 21 20 20 19 19 19 18 17 16 16 15 14 13 13 12 12 12 12 11 11 10
31 34 33 31 30 29 29 29 29 29 29 28 27 25 24 23 22 21 21 21 21 21 21 20 19 19 19 19 19 19 18 17 16 16 15 14 14 14 13 13 13 12
28 31 32 32 31 29 28 28 30 32 32 31 30 28 27 25 23 21 20 20 20 20 20 19 19 19 19 19 20 20 19 19 18 17 17 16 16 16 15 15 15 14
26 27 30 30 30 29 29 29 30 32 32 32 32 31 30 28 25 23 21 20 20 20 20 19 19 18 18 19 20 20 20 20 19 18 18 18 18 17 17 17 16 16
22 25 29 31 29 29 32 31 29 29 30 30 31 31 32 30 28 26 25 23 22 21 20 20 19 18 17 18 19 21 20 20 19 18 18 18 18 19 19 18 18 18
20 22 27 29 27 28 31 31 28 27 28 28 28 28 28 29 30 29 28 26 24 23 22 21 21 20 19 19 20 21 22 21 20 19 18 18 18 19 20 20 20 20
22 22 24 25 25 25 29 30 29 28 30 30 29 27 27 28 29 30 30 29 28 27 25 23 23 22 21 20 21 23 23 23 21 19 19 19 19 20 21 21 22 22
25 24 25 25 25 25 27 29 31 31 32 32 32 31 29 28 28 30 30 31 31 30 28 26 25 25 24 23 23 25 26 25 22 21 21 21 21 22 22 22 23 23
28 27 26 27 28 28 28 28 30 31 33 34 34 33 32 31 31 32 31 31 32 31 31 30 29 29 27 26 26 27 27 26 24 23 22 22 22 23 24 24 24 24
34 32 30 29 29 30 30 30 30 30 32 35 36 34 34 34 34 33 31 30 30 31 32 33 33 32 31 29 29 30 30 29 27 26 24 23 23 24 25 25 26 26
40 38 36 33 32 32 32 32 31 29 29 32 34 34 35 35 34 33 32 31 30 31 33 34 33 33 34 33 32 33 32 32 31 29 26 25 25 25 25 26 26 27
45 43 41 39 36 35 34 34 33 30 28 28 30 32 34 34 34 34 33 32 32 32 33 32 31 33 35 36 35 35 35 35 33 32 30 28 28 27 27 27 27 27
Wind_Direction
219 219 217 216 215 215 217 216 214 213 212 209 206 200 194 198 211 211 188 172 159 152 151 151 151 149 140 130 127 127 118 113 119 121 122 125 126 131 137 139 144 158
220 221 218 216 214 212 215 217 215 213 211 207 206 206 204 203 208 217 216 196 175 162 158 157 157 152 145 140 134 127 120 115 111 112 125 130 128 129 134 139 152 164
220 224 222 217 214 212 212 214 216 216 214 209 207 209 211 211 211 216 226 219 198 178 166 167 171 160 158 160 148 136 133 124 118 120 122 117 111 114 122 136 163 172
219 225 226 221 216 213 212 213 216 217 217 214 211 214 215 215 216 219 224 225 215 199 179 176 179 173 172 175 162 149 148 141 135 132 115 102 103 106 115 131 159 180
218 223 228 226 220 215 214 215 216 216 218 217 215 216 216 216 219 221 224 224 217 211 201 191 191 187 185 188 180 163 155 153 153 138 115 110 109 99 100 117 136 176
217 220 226 227 224 220 217 218 218 217 218 219 218 219 219 219 221 222 224 224 218 215 213 210 209 203 197 197 197 182 166 167 172 147 120 118 108 92 90 105 116 147
219 218 221 225 225 223 222 223 224 222 221 220 221 222 221 220 221 223 224 224 221 219 218 218 220 220 214 208 208 204 193 186 187 174 152 141 115 101 102 99 96 102
221 219 219 222 225 224 224 226 227 228 227 224 223 224 225 224 223 223 225 227 226 224 223 222 222 226 227 222 219 219 219 212 205 201 197 190 163 139 127 102 96 93
222 222 220 220 223 225 225 226 229 231 232 230 228 227 228 228 228 226 226 228 231 231 230 229 227 227 229 228 227 225 226 229 225 221 217 213 207 198 193 180 151 117
226 223 222 221 222 225 226 226 229 232 234 235 233 231 231 231 231 231 230 230 234 237 238 238 235 234 234 232 231 230 229 230 232 232 231 228 225 221 219 223 223 213
232 227 224 223 224 226 227 227 228 231 236 238 237 235 235 234 233 233 233 233 236 239 242 243 243 242 242 241 239 238 235 235 235 235 235 236 235 233 233 235 236 237
233 231 227 225 225 228 229 229 229 230 235 239 241 241 239 239 237 235 234 234 236 239 242 244 246 247 247 247 246 246 244 244 244 242 241 243 242 241 240 242 243 243
227 230 228 225 225 229 231 233 233 232 235 239 243 244 243 243 242 240 239 237 236 238 242 244 247 249 250 250 249 251 251 251 253 254 252 252 252 251 248 246 247 246
222 226 226 223 224 228 230 234 237 236 237 239 242 245 245 244 244 243 243 242 240 239 241 245 247 249 252 253 252 252 254 255 257 260 261 260 259 259 257 254 252 250
227 229 223 217 221 227 228 232 236 239 241 241 241 244 245 245 244 244 245 246 246 245 244 246 249 251 253 255 256 256 255 256 258 260 263 264 264 264 263 261 259 257
232 235 227 217 216 222 227 230 232 235 239 240 241 242 243 243 243 243 244 246 249 250 250 250 253 255 257 259 259 259 259 258 259 259 260 262 265 267 268 267 267 264
234 237 234 228 223 222 225 229 231 233 234 236 239 242 241 240 240 240 241 243 246 249 251 252 254 258 262 263 263 263 262 261 261 261 261 261 263 266 268 269 270 269
237 236 234 234 232 229 229 229 229 232 235 235 236 239 242 241 240 239 238 238 241 244 247 250 251 254 258 264 266 265 264 263 262 262 261 261 262 264 266 268 270 271
241 237 235 237 236 233 234 238 234 232 238 244 242 241 243 244 243 243 241 238 237 238 241 245 247 248 250 255 261 263 262 262 261 260 259 259 260 260 261 264 265 267
246 245 245 247 244 236 238 245 244 238 240 248 251 252 253 252 249 247 245 244 241 237 237 238 240 243 243 246 252 256 258 257 256 256 256 255 255 256 257 259 259 261
250 252 253 254 251 243 240 243 245 243 240 239 242 250 259 261 257 253 250 248 247 244 240 238 238 239 239 240 245 249 252 253 252 253 253 251 251 251 251 252 254 255
254 255 257 258 254 249 244 243 243 242 241 237 236 241 251 256 255 254 254 253 250 247 244 242 241 241 239 238 241 245 248 250 250 249 249 249 249 249 249 249 249 250
255 255 258 260 260 258 254 249 244 242 241 240 238 238 243 245 244 245 250 255 255 252 249 246 243 243 242 240 241 245 248 250 250 249 247 248 249 250 250 250 249 248
257 258 259 260 262 265 262 254 247 245 245 244 241 241 244 245 243 241 242 247 252 255 255 252 248 244 242 241 242 245 247 249 249 249 247 247 248 249 251 252 252 252
260 261 261 261 263 265 265 259 253 252 253 249 245 245 247 248 248 247 245 242 242 247 252 253 253 251 248 244 243 244 246 248 249 249 248 247 247 248 249 251 252 254
261 261 262 263 263 264 265 264 260 257 256 254 249 247 247 247 247 248 248 244 240 239 240 245 252 256 254 249 246 245 246 247 247 247 247 247 246 246 247 248 250 252